[[{"header":{"parameterUnit":"m.s-1","parameterCategory":1,"la1":30.2992,"la2":30.254,"lo1":-89.0895,"lo2":-89.0443,"dy":0.0025,"dx":0.0025,"nx":19,"ny":19,"refTime":"2026-05-15T21:00:00:Z","depth":0,"parameterNumber":2,"parameterNumberName":"U-component_of_WINDS"},"data":[0,0,0,-1.1058,-1.1056,-1.0946,-1.0945,-1.0821,-1.082,0,0,0,0,0,0,0,0,0,0,0,-1.1102,-1.1101,-1.1058,-1.1056,-1.0946,-1.0945,-1.0821,-1.082,0,0,0,0,0,0,0,0,0,0,0,-1.1102,-1.1101,-1.1101,-1.1056,-1.0946,-1.0945,-1.0821,-1.0898,0,0,0,0,0,0,0,0,0,0,-1.1003,-1.1053,-1.1102,-1.1101,-1.1055,-1.0946,-1.0945,-1.0902,-1.0894,-1.0879,0,-1.0869,0,-1.0843,-1.0813,-1.0813,0,0,0,-1.1047,-1.106,-1.1021,-1.1101,-1.1054,-1.0946,-1.0993,-1.0897,-1.0888,-1.0868,-1.0867,-1.0861,-1.0841,-1.0812,-1.0812,-1.0756,-1.0756,0,0,-1.1054,-1.1087,-1.1028,-1.1016,-1.1035,-1.0997,-1.099,-1.0891,-1.0892,-1.0866,-1.0858,-1.0839,-1.0812,-1.0811,-1.0756,-1.0756,0,0,0,-1.1077,-1.1092,-1.1055,-1.1021,-1.1,-1.0994,-1.0986,-1.0896,-1.0881,-1.0857,-1.0837,-1.0811,-1.081,-1.0756,-1.0756,-1.0796,0,0,0,-1.108,-1.1105,-1.1058,-1.1077,-1.1002,-1.0947,-1.0993,-1.0888,-1.0876,-1.0838,-1.0811,-1.0809,-1.0755,-1.0756,-1.0794,-1.0808,0,0,0,-1.1105,-1.1108,-1.1096,-1.1079,-1.1033,-1.0948,-1.0927,-1.0885,-1.0864,-1.0812,-1.0808,-1.0755,-1.0756,-1.0793,-1.0806,-1.0804,0,0,0,-1.1141,-1.1132,-1.1097,-1.1079,-1.1035,-1.0974,-1.0927,-1.088,-1.084,-1.081,-1.0755,-1.0756,-1.0793,-1.0805,-1.0803,-1.0808,-1.0813,0,0,-1.1148,-1.1134,-1.112,-1.1087,-1.1041,-1.0988,-1.0948,-1.0879,-1.0842,-1.0787,-1.0785,-1.0795,-1.0806,-1.0804,-1.0834,-1.0839,0,0,0,-1.1134,-1.1125,-1.1106,-1.1071,-1.1019,-1.0976,-1.091,-1.0885,-1.0837,-1.0821,-1.0793,-1.0798,-1.0796,-1.0796,-1.08,-1.0796,-1.0758,-1.0758,-1.0758,-1.119,-1.1146,-1.1122,-1.1065,-1.1032,-1.0966,-1.0935,-1.0889,-1.0853,-1.0847,-1.083,-1.0854,-1.0856,-1.0859,-1.0855,-1.083,-1.083,-1.083,-1.083,-1.1195,-1.1175,-1.1131,-1.1091,-1.1045,-1.101,-1.0947,-1.0923,-1.0884,-1.0863,-1.0858,-1.0837,-1.0865,-1.0859,-1.0833,-1.0832,-1.0832,-1.0832,-1.0831,-1.1226,-1.1209,-1.1181,-1.1127,-1.1091,-1.1034,-1.1,-1.0959,-1.0919,-1.0915,-1.0893,-1.0892,-1.0885,-1.0908,-1.0908,-1.0908,-1.0908,-1.0908,-1.0908,-1.127,-1.1236,-1.1212,-1.116,-1.1133,-1.1093,-1.1028,-1.1001,-1.0959,-1.0932,-1.0931,-1.0896,-1.0877,-1.0872,-1.0909,-1.0909,-1.0909,-1.0909,-1.0909,-1.1289,-1.1279,-1.1243,-1.1217,-1.1152,-1.112,-1.1069,-1.1017,-1.0988,-1.0973,-1.0939,-1.0932,-1.0914,-1.091,-1.0906,-1.0949,-1.0949,-1.0949,-1.0949,-1.1315,-1.1303,-1.1258,-1.1219,-1.1176,-1.1127,-1.1088,-1.1039,-1.0986,-1.0966,-1.0954,-1.0946,-1.0944,-1.0927,-1.0923,-1.0919,-1.0964,-1.0964,-1.0964,-1.1325,-1.1307,-1.1282,-1.1232,-1.1179,-1.1135,-1.1097,-1.1054,-1.0992,-1.0963,-1.0949,-1.0949,-1.0935,-1.0933,-1.0902,-1.0897,-1.0888,0,0]},{"header":{"parameterUnit":"m.s-1","parameterCategory":1,"la1":30.2992,"la2":30.254,"lo1":-89.0895,"lo2":-89.0443,"dy":0.0025,"dx":0.0025,"nx":19,"ny":19,"refTime":"2026-05-15T21:00:00:Z","depth":0,"parameterNumber":3,"parameterNumberName":"V-component_of_WINDS"},"data":[0,0,0,3.8867,3.8865,3.8784,3.8783,3.8688,3.8687,0,0,0,0,0,0,0,0,0,0,0,3.8897,3.8897,3.8867,3.8865,3.8784,3.8783,3.8688,3.8687,0,0,0,0,0,0,0,0,0,0,0,3.8898,3.8897,3.8897,3.8865,3.8784,3.8783,3.8688,3.8746,0,0,0,0,0,0,0,0,0,0,3.8823,3.8859,3.8897,3.8897,3.8864,3.8784,3.8783,3.8749,3.8742,3.8729,0,3.872,0,3.8702,3.8681,3.8681,0,0,0,3.8859,3.8864,3.8836,3.8897,3.8863,3.8784,3.8819,3.8745,3.8738,3.8721,3.8719,3.8715,3.8701,3.8681,3.868,3.8627,3.8627,0,0,3.8863,3.8886,3.8841,3.8832,3.8848,3.8821,3.8816,3.8741,3.8739,3.8718,3.8713,3.8699,3.868,3.868,3.8627,3.8627,0,0,0,3.888,3.8889,3.8863,3.8836,3.8821,3.8819,3.8813,3.8743,3.8732,3.8711,3.8698,3.868,3.8679,3.8627,3.8627,3.8651,0,0,0,3.8883,3.8899,3.8865,3.8878,3.8823,3.8781,3.8817,3.8738,3.8728,3.8699,3.868,3.8678,3.8627,3.8627,3.865,3.8659,0,0,0,3.89,3.8901,3.8892,3.888,3.8846,3.8782,3.8767,3.8735,3.8721,3.8681,3.8678,3.8626,3.8627,3.865,3.8657,3.8652,0,0,0,3.8925,3.8913,3.8893,3.8874,3.8847,3.8799,3.8767,3.873,3.8699,3.8679,3.8627,3.8627,3.8649,3.8657,3.8651,3.8652,3.8654,0,0,3.8923,3.8914,3.8901,3.8881,3.8842,3.8809,3.8773,3.8722,3.8696,3.8651,3.8649,3.8651,3.8657,3.8652,3.8658,3.866,0,0,0,3.8908,3.89,3.8884,3.8857,3.882,3.8788,3.874,3.8721,3.8682,3.8678,3.8646,3.8649,3.8645,3.8644,3.8646,3.8641,3.8627,3.8627,3.8627,3.8937,3.8907,3.8884,3.8844,3.8818,3.877,3.8745,3.8711,3.8686,3.868,3.8666,3.8674,3.8674,3.8675,3.867,3.8663,3.8663,3.8663,3.8663,3.8931,3.8915,3.8884,3.8851,3.8819,3.8789,3.8742,3.8726,3.8693,3.8681,3.8676,3.8666,3.8678,3.8672,3.8665,3.8665,3.8665,3.8664,3.8664,3.8948,3.8934,3.8913,3.8871,3.8842,3.8801,3.8772,3.8742,3.8714,3.8708,3.8691,3.8691,3.8687,3.8702,3.8702,3.8702,3.8702,3.8702,3.8702,3.8973,3.8948,3.8928,3.8888,3.8867,3.8836,3.8787,3.8765,3.8733,3.8713,3.8713,3.8689,3.8685,3.8685,3.8703,3.8703,3.8703,3.8703,3.8703,3.8979,3.8973,3.8943,3.8923,3.8873,3.8846,3.8809,3.8766,3.8743,3.873,3.8707,3.8709,3.8697,3.8695,3.8695,3.8714,3.8714,3.8714,3.8714,3.8993,3.8985,3.8948,3.8917,3.8882,3.8846,3.8811,3.8773,3.8733,3.8716,3.8709,3.8706,3.8706,3.8694,3.8692,3.8692,3.8709,3.8709,3.8709,3.8996,3.8983,3.896,3.8923,3.8882,3.8847,3.8813,3.8777,3.8729,3.8708,3.8703,3.8703,3.8698,3.8698,3.8677,3.8676,3.8674,0,0]}]]